Powrót do katalogu

SL-8 DEB

AktywnyLEO
NORAD 39840·DEBRIS·🇷🇺 Russia

Wystrzelony Feb 12, 1991 z Plesetsk Cosmodrome

Loading…

Następne Przeloty (najbliższe 24 godziny)

TLE

NieaktualneSource: Space-Track

Epoka: Aug 29, 2026, 14:36 UTC

1 39840U 91009DY  26241.60835742  .00002426  00000-0  28211-2 0  9993
2 39840  73.7856 323.8489 0103128  70.0924 356.4508 13.67062216604102

Śledź SL-8 DEB w czasie rzeczywistym z AllMySat

Download on the App Store